CW6129 Weather Reports


time (UTC)temp
C
wind
direction
speed
KPH
gust
KPH
rain 1hr
cm
rain 24hr
cm
rain mn
cm
humidity
%
barometer
mb
20260506092404 11 236 0.0 0.0 0.00 0.00 0.00 93 1019.3
20260506091905 11 236 0.0 0.0 0.00 0.00 0.00 93 1019.3
20260506091405 11 236 0.0 0.0 0.00 0.00 0.00 93 1019.3
20260506090905 11 236 0.0 0.0 0.00 0.00 0.00 93 1019.3
20260506090405 11 236 0.0 0.0 0.00 0.00 0.00 93 1019.3
20260506085905 11 236 0.0 0.0 0.00 0.00 0.00 93 1019.3
20260506085405 11 236 0.0 0.0 0.00 0.00 0.00 93 1019.3
20260506084905 11 236 0.0 0.0 0.00 0.03 0.00 93 1019.4
20260506083905 11 236 0.0 0.0 0.00 0.03 0.00 93 1019.3
20260506082905 11 236 0.0 0.0 0.00 0.05 0.00 93 1019.4
20260506082404 11 236 0.0 0.0 0.00 0.05 0.00 93 1019.4
20260506081405 11 236 0.0 0.0 0.00 0.05 0.00 93 1019.4
20260506080905 11 234 0.0 0.0 0.00 0.05 0.00 93 1019.4
20260506080404 11 242 0.0 0.0 0.00 0.05 0.00 93 1019.4
20260506073404 11 132 0.0 0.0 0.00 0.05 0.00 93 1019.1
20260506072905 11 132 0.0 0.0 0.00 0.05 0.00 93 1019.1
20260506071905 11 132 0.0 0.0 0.00 0.05 0.00 93 1018.9
20260506071404 11 132 0.0 0.0 0.00 0.05 0.00 93 1018.8
20260506070905 11 132 0.0 0.0 0.00 0.05 0.00 93 1018.8
20260506070405 11 132 0.0 0.0 0.00 0.05 0.00 93 1018.9
20260506062405 11 132 0.0 0.0 0.00 0.10 0.08 93 1018.6
20260506061905 11 132 0.0 0.0 0.00 0.10 0.08 92 1018.5
20260506061404 11 132 0.0 0.0 0.00 0.10 0.08 92 1018.5
20260506060405 11 132 0.0 0.0 0.00 0.10 0.08 92 1018.4
20260506051405 11 132 0.0 0.0 0.00 0.20 0.08 91 1017.9
20260506050905 11 132 0.0 0.0 0.00 0.23 0.08 91 1018.0
20260506050405 11 132 0.0 0.0 0.00 0.23 0.08 91 1018.1
20260506044905 12 132 0.0 0.0 0.00 0.25 0.08 91 1017.9
20260506044405 12 132 0.0 0.0 0.00 0.25 0.08 91 1017.9
20260506043904 12 132 0.0 0.0 0.00 0.25 0.08 90 1017.8
20260506043405 12 132 0.0 0.0 0.00 0.25 0.08 90 1017.8
20260506042905 12 132 0.0 0.0 0.00 0.25 0.08 90 1017.8
20260506042405 12 132 0.0 0.0 0.00 0.25 0.08 90 1017.7
20260506041905 12 132 0.0 0.0 0.00 0.25 0.08 91 1017.7
20260506041405 12 132 0.0 0.0 0.00 0.28 0.08 90 1017.6
20260506040904 12 132 0.0 0.0 0.00 0.28 0.08 90 1017.4
20260506040405 12 132 0.0 0.0 0.00 0.30 0.08 89 1017.4
20260506035905 12 132 0.0 0.0 0.00 0.33 0.08 89 1017.3
20260506035405 12 132 0.0 0.0 0.00 0.36 0.08 89 1017.2
20260506034905 12 132 0.0 0.0 0.00 0.38 0.08 89 1017.2
20260506034405 12 132 0.0 0.0 0.00 0.41 0.08 89 1017.3
20260506033905 12 132 0.0 0.0 0.00 0.43 0.08 89 1017.4
20260506033405 12 132 0.0 0.0 0.00 0.43 0.08 89 1017.3
20260506032905 12 132 0.0 0.0 0.00 0.46 0.08 89 1017.2
20260506032405 12 132 0.0 0.0 0.00 0.48 0.08 88 1017.0
20260506031405 12 132 0.0 0.0 0.00 0.51 0.08 88 1016.9
20260506030905 12 132 0.0 0.0 0.00 0.53 0.08 88 1016.9
20260506025405 12 132 0.0 0.0 0.00 0.66 0.08 87 1016.4
20260506024905 12 132 0.0 0.0 0.00 0.69 0.08 88 1016.5
20260506024405 12 132 0.0 0.0 0.00 0.74 0.08 87 1016.5
20260506023905 12 132 0.0 0.0 0.00 0.76 0.08 86 1016.5
20260506022905 12 132 0.0 0.0 0.00 0.81 0.08 86 1016.4
20260506022405 12 157 0.0 0.0 0.00 0.81 0.08 86 1016.3
20260506021905 12 157 0.0 0.0 0.00 0.84 0.08 86 1016.3
20260506021405 12 157 0.0 0.0 0.00 0.84 0.08 86 1016.3
20260506020905 12 157 0.0 0.0 0.00 0.84 0.08 85 1016.1
20260506020405 12 157 0.0 0.0 0.00 0.86 0.08 85 1016.0
20260506015905 12 159 0.0 0.0 0.00 0.86 0.08 85 1016.2
20260506015405 12 169 0.0 0.0 0.00 0.86 0.08 84 1016.2
20260506014904 12 197 0.0 0.0 0.00 0.89 0.08 85 1016.3
20260506014405 12 165 0.0 0.0 0.00 0.91 0.08 85 1016.4
20260506013905 12 171 0.0 0.0 0.00 0.91 0.08 85 1016.4
20260506013406 12 171 0.0 0.0 0.00 0.94 0.08 84 1016.5
20260506012905 12 185 0.0 0.0 0.00 0.99 0.08 84 1016.5
20260506012405 12 159 0.0 0.0 0.00 1.02 0.08 83 1016.5
20260506011904 12 140 0.0 0.0 0.00 1.04 0.08 84 1016.6
20260506010905 12 97 0.0 0.0 0.00 1.04 0.08 84 1016.3
20260506010405 12 4 0.0 0.0 0.00 1.04 0.08 83 1016.2
20260506005905 13 352 0.0 0.0 0.00 1.04 0.08 85 1016.3
20260506005405 13 350 0.0 0.0 0.00 1.07 0.08 84 1016.2
20260506004905 13 56 0.0 0.0 0.00 1.07 0.08 85 1016.2
20260506004405 12 346 0.0 0.0 0.00 1.09 0.08 84 1016.1
20260506003905 13 355 0.0 0.0 0.00 1.12 0.08 84 1016.1
20260506003405 12 355 0.0 0.0 0.00 1.14 0.08 86 1016.0
20260506002405 12 86 0.0 0.0 0.00 1.19 0.08 85 1016.1
20260506001405 12 29 0.0 0.0 0.00 1.24 0.08 85 1016.1
20260506000905 12 148 0.0 0.0 0.00 1.27 0.08 85 1016.1
20260505235905 12 9 0.0 0.0 0.00 1.32 0.08 84 1016.1
20260505235405 13 319 0.0 0.0 0.00 1.35 0.08 84 1016.0
20260505234905 12 324 0.0 0.0 0.00 1.37 0.08 84 1016.0
20260505234405 12 322 0.0 0.0 0.00 1.42 0.08 84 1016.0
20260505233905 12 167 0.0 0.0 0.00 1.42 0.08 85 1016.0
20260505233405 12 210 0.0 0.0 0.00 1.45 0.08 84 1016.0
20260505232905 12 195 0.0 0.0 0.00 1.47 0.08 85 1016.0
20260505232404 12 182 0.0 0.0 0.00 1.50 0.08 85 1016.0
20260505231904 12 269 0.0 0.0 0.00 1.50 0.08 84 1016.1
20260505231405 12 269 0.0 0.0 0.00 1.50 0.08 84 1016.1
20260505230905 12 192 0.0 0.0 0.00 1.52 0.08 86 1016.1
20260505230405 12 192 0.0 0.0 0.00 1.55 0.08 86 1016.1
20260505225906 12 192 0.0 0.0 0.00 1.57 0.08 85 1016.1
20260505225406 12 171 0.0 0.0 0.00 1.57 0.08 85 1016.0
20260505224905 12 171 0.0 0.0 0.00 1.60 0.08 85 1016.0
20260505224405 12 157 0.0 0.0 0.00 1.63 0.08 85 1016.1
20260505223905 12 95 0.0 0.0 0.00 1.68 0.08 86 1016.0
20260505223405 12 78 0.0 0.0 0.00 1.68 0.08 86 1016.1
20260505222905 12 123 0.0 0.0 0.00 1.70 0.08 86 1016.1
20260505222406 12 115 0.0 0.0 0.00 1.70 0.08 86 1016.2
20260505221405 12 94 0.0 0.0 0.00 1.73 0.08 87 1016.2
20260505220905 12 195 0.0 0.0 0.00 1.73 0.08 86 1016.2
20260505220405 12 354 0.0 0.0 0.00 1.75 0.08 85 1016.3
20260505215905 12 58 0.0 0.0 0.00 1.75 0.08 86 1016.3
20260505215405 12 163 0.0 0.0 0.00 1.78 0.08 85 1016.3
20260505214905 12 161 0.0 0.0 0.00 1.78 0.08 85 1016.3
20260505214405 12 268 0.0 0.0 0.00 1.78 0.08 84 1016.3
20260505213905 12 337 0.0 0.0 0.00 1.78 0.08 84 1016.3
20260505213404 12 227 0.0 0.0 0.00 1.80 0.08 83 1016.3
20260505212905 12 212 0.0 0.0 0.00 1.80 0.08 83 1016.3
20260505212405 12 219 0.0 0.0 0.00 1.83 0.08 83 1016.3
20260505211905 12 219 0.0 0.0 0.00 1.85 0.08 84 1016.4
20260505211405 12 241 0.0 0.0 0.00 1.85 0.08 83 1016.4
20260505210905 12 336 0.0 0.0 0.00 1.85 0.08 84 1016.3
20260505205905 12 280 0.0 0.0 0.00 1.85 0.08 83 1016.3
20260505205405 12 299 0.0 0.0 0.00 1.85 0.08 84 1016.2
20260505204905 12 290 0.0 0.0 0.00 1.85 0.08 83 1016.3
20260505204405 12 310 0.0 0.0 0.00 1.85 0.08 83 1016.3
20260505203905 12 220 0.0 0.0 0.00 1.85 0.08 84 1016.2
20260505203405 12 257 0.0 0.0 0.00 1.85 0.08 83 1016.2
20260505202906 12 220 0.0 0.0 0.00 1.85 0.08 85 1016.2
20260505202405 12 10 0.0 3.2 0.00 1.85 0.08 85 1016.2
20260505201905 12 338 0.0 0.0 0.00 1.88 0.08 85 1016.3
20260505201405 12 196 0.0 0.0 0.00 1.88 0.08 84 1016.3
20260505200905 12 32 0.0 0.0 0.00 1.88 0.08 83 1016.2
20260505200405 12 13 0.0 4.8 0.00 1.88 0.08 82 1016.2
20260505195905 12 306 0.0 0.0 0.00 1.88 0.08 82 1016.2
20260505195405 12 208 0.0 0.0 0.00 1.88 0.08 82 1016.3
20260505194906 12 66 0.0 0.0 0.00 1.88 0.08 82 1016.4
20260505194405 12 9 0.0 0.0 0.00 1.88 0.08 83 1016.4
20260505193405 12 0 0.0 0.0 0.00 1.91 0.08 82 1016.4
20260505192906 12 356 0.0 0.0 0.00 1.96 0.08 81 1016.4
20260505192405 12 135 0.0 0.0 0.00 2.01 0.08 81 1016.4
20260505191905 12 231 0.0 0.0 0.00 2.03 0.08 80 1016.4
20260505191405 12 355 0.0 0.0 0.00 2.03 0.08 82 1016.3
20260505190905 12 349 0.0 0.0 0.00 2.06 0.08 81 1016.2
20260505190405 12 149 0.0 0.0 0.00 2.11 0.08 82 1016.2
20260505185906 12 237 0.0 0.0 0.00 2.16 0.08 82 1016.2
20260505185405 12 274 0.0 0.0 0.00 2.18 0.08 84 1016.3
20260505184905 13 0 0.0 3.2 0.00 2.18 0.08 81 1016.2
20260505184405 13 302 0.0 0.0 0.00 2.21 0.08 81 1016.2
20260505183905 12 113 0.0 0.0 0.00 2.21 0.08 82 1016.1
20260505183405 12 138 0.0 0.0 0.00 2.21 0.08 84 1016.1
20260505182905 12 173 0.0 0.0 0.00 2.24 0.08 82 1016.1
20260505182406 12 304 0.0 0.0 0.00 2.24 0.08 81 1016.0
20260505181905 12 221 0.0 0.0 0.00 2.24 0.08 81 1016.1
20260505180905 12 315 0.0 0.0 0.00 2.24 0.08 82 1016.0
20260505180405 12 256 0.0 0.0 0.00 2.24 0.08 84 1016.0
20260505175906 12 301 0.0 0.0 0.00 2.24 0.08 82 1016.0
20260505175405 12 221 0.0 0.0 0.00 2.24 0.08 83 1016.0
20260505174905 12 250 0.0 0.0 0.00 2.24 0.08 86 1015.9
20260505174406 12 309 0.0 0.0 0.00 2.24 0.08 86 1015.9
20260505173905 12 297 0.0 0.0 0.00 2.24 0.08 85 1015.9
20260505173406 12 313 0.0 0.0 0.00 2.24 0.08 86 1015.8
20260505172906 11 230 0.0 0.0 0.00 2.24 0.08 87 1015.7
20260505171905 11 224 0.0 3.2 0.00 2.26 0.08 91 1015.6
20260505171405 11 344 0.0 4.8 0.00 2.26 0.08 90 1015.7
20260505170905 11 251 0.0 0.0 0.00 2.26 0.08 91 1015.8
20260505170405 10 98 0.0 0.0 0.00 2.29 0.08 92 1015.8
20260505165906 10 322 0.0 0.0 0.00 2.31 0.08 92 1015.8
20260505165405 10 261 0.0 0.0 0.00 2.31 0.08 93 1015.8
20260505164905 10 248 0.0 0.0 0.00 2.31 0.08 92 1015.8
20260505164406 10 340 0.0 0.0 0.00 2.31 0.08 93 1015.7
20260505163905 10 256 0.0 0.0 0.00 2.34 0.08 93 1015.7
20260505163405 10 313 0.0 0.0 0.00 2.39 0.08 93 1015.7
20260505162906 10 312 0.0 0.0 0.00 2.41 0.08 93 1015.7
20260505161905 10 334 0.0 0.0 0.00 2.41 0.08 92 1015.7
20260505161405 10 317 0.0 0.0 0.00 2.41 0.08 93 1015.8
20260505160905 10 299 0.0 0.0 0.00 2.41 0.08 93 1015.6
20260505160406 10 341 0.0 0.0 0.00 2.41 0.08 93 1015.6
20260505152906 10 265 0.0 0.0 0.00 2.41 0.08 94 1015.6
20260505152405 10 247 0.0 0.0 0.00 2.41 0.08 95 1015.5
20260505151905 9 171 0.0 0.0 0.00 2.41 0.08 95 1015.5
20260505150906 9 29 0.0 0.0 0.00 2.41 0.08 95 1015.4
20260505140405 8 184 0.0 0.0 0.00 2.41 0.08 96 1015.0
20260505124905 8 188 0.0 0.0 0.00 2.41 0.08 96 1014.8
20260505124406 8 188 0.0 0.0 0.00 2.41 0.08 96 1014.8
20260505123905 8 188 0.0 0.0 0.00 2.41 0.08 95 1014.7
20260505123406 8 180 0.0 0.0 0.00 2.41 0.08 95 1014.7
20260505122406 8 180 0.0 0.0 0.00 2.41 0.08 95 1014.5
20260505121405 8 180 0.0 0.0 0.00 2.41 0.08 95 1014.6
20260505120905 8 180 0.0 0.0 0.00 2.41 0.08 95 1014.5
20260505120406 8 180 0.0 0.0 0.00 2.41 0.08 95 1014.6
20260505115905 8 180 0.0 0.0 0.00 2.41 0.08 95 1014.6
20260505115405 8 180 0.0 0.0 0.00 2.41 0.08 95 1014.7
20260505114905 8 180 0.0 0.0 0.00 2.41 0.08 95 1014.6
20260505114406 8 180 0.0 0.0 0.00 2.41 0.08 95 1014.7
20260505112906 8 184 0.0 0.0 0.00 2.41 0.08 95 1014.7
20260505112406 8 184 0.0 0.0 0.00 2.41 0.08 95 1014.7
20260505111405 8 184 0.0 0.0 0.00 2.41 0.08 95 1014.8
20260505110905 8 184 0.0 0.0 0.00 2.41 0.08 95 1014.8
20260505110406 8 180 0.0 0.0 0.00 2.41 0.08 95 1014.8
20260505101905 8 190 0.0 0.0 0.00 2.41 0.08 95 1014.9
20260505101406 8 196 0.0 0.0 0.00 2.41 0.08 95 1014.9
20260505100905 8 196 0.0 0.0 0.00 2.41 0.08 95 1014.9
20260505100406 8 202 0.0 0.0 0.00 2.41 0.08 95 1015.0
20260505095906 8 202 0.0 0.0 0.00 2.41 0.08 95 1014.8
20260505095405 8 202 0.0 0.0 0.00 2.41 0.08 95 1014.8
20260505094905 8 202 0.0 0.0 0.03 2.41 0.08 95 1015.1
20260505094406 8 202 0.0 0.0 0.03 2.41 0.08 95 1015.2
20260505093905 8 202 0.0 0.0 0.03 2.41 0.08 95 1015.2
20260505092906 8 202 0.0 0.0 0.05 2.41 0.08 96 1015.3